Regional Weather Roundup
Issued by NWS Albany, NY

Home | Current Version | Previous Version | Text Only | Print | Product List | Glossary On
Versions: 1 2 3 4 5 6 7 8 9 10 11 12 13 14 15 16 17 18 19 20 21 22 23 24 25 26 27 28
000
ASUS41 KALY 251210
RWRALY

NEW YORK STATE HOURLY WEATHER ROUNDUP
NATIONAL WEATHER SERVICE ALBANY NY
800 AM EDT SAT OCT 25 2014

NOTE: "FAIR" INDICATES FEW OR NO CLOUDS BELOW 12,000 FEET WITH NO
SIGNIFICANT WEATHER AND/OR NO OBSTRUCTIONS TO VISIBILITY.

NYZ032-033-038>043-046>054-057>066-NYZ062>081-251300-
EAST


CITY           SKY/WX    TMP DP  RH WIND       PRES   REMARKS
ALBANY         PTCLDY    40  37  89 CALM      29.84S
GLENS FALLS    FOG       41  40  96 CALM      29.81S VSB 1/4
POUGHKEEPSIE   PTCLDY    35  33  92 CALM      29.86R
NEWBURGH       CLEAR     45  39  81 SW9       29.86S
MONTGOMERY     CLEAR     44  36  73 SW5       29.86R
WHITE PLAINS   CLEAR     46  38  73 NW7       29.84S
ISLIP          PTCLDY    46  43  89 W5        29.83S
NEW YORK CITY  PTCLDY    52  37  56 W7        29.86S
CENTRAL PARK   CLEAR     51  36  56 W6        29.89R
$$

NYZ005>009-017-018-044>046-055-056-251300-
CENTRAL


CITY           SKY/WX    TMP DP  RH WIND       PRES   REMARKS
FULTON         CLOUDY    48  44  86 S7        29.82F FOG
SYRACUSE       CLOUDY    51  45  79 S3        29.83F
ROME           CLOUDY    44  42  93 CALM      29.85F
ELMIRA         CLOUDY    43  38  82 SW6       29.87F
BINGHAMTON     CLOUDY    43  36  76 SW6       29.85F
MONTICELLO     CLEAR     37  34  87 MISG      29.88S
$$

NYZ026>034-041>043-251300-
NORTH


CITY           SKY/WX    TMP DP  RH WIND       PRES   REMARKS
WATERTOWN      CLOUDY    48  41  76 S6        29.80F
FORT DRUM      NOT AVBL
MASSENA        PTCLDY    39  37  92 SW7       29.79R WCI  34
SARANAC LAKE   CLOUDY    39  38  96 SW8       29.76F FOG     WCI  33
PLATTSBURGH    MOCLDY    46  38  73 VRB6      29.77R
$$

NYZ001>004-010>016-019>021-251300-
WEST


CITY           SKY/WX    TMP DP  RH WIND       PRES   REMARKS
NIAGARA FALLS  CLOUDY    53  49  86 SW10      29.81F
BUFFALO        CLOUDY    54  49  83 SW10      29.83F
DUNKIRK        CLOUDY    53  45  74 S8        29.86S
JAMESTOWN      CLOUDY    48  43  81 SW7       29.88F
WELLSVILLE     CLOUDY    48  40  73 W9        29.88F
ROCHESTER      CLOUDY    50  45  83 SW8       29.83F
PENN YAN       CLOUDY    50  43  77 SW8       29.84F
$$

             KEY
       WCI = WIND CHILL INDEX
       VSB = VISIBILITY
       HX  = HEAT INDEX
$$



USA.gov is the U.S. government's official web portal to all federal, state and local government web resources and services.